Time,TemperatureF,DewpointF,PressureIn,WindDirection,WindDirectionDegrees,WindSpeedMPH,WindSpeedGustMPH,Humidity,HourlyPrecipIn,Conditions,Clouds,dailyrainin,SoftwareType,DateUTC
2013-03-24 00:01:00,32.1,28.9,30.38,SSW,196,0.0,0.0,88,0.00,,,0.01,Wunderground v.1.15,2013-03-24 07:01:00,
2013-03-24 00:11:00,31.8,28.7,30.38,SSW,196,0.0,0.0,88,0.00,,,0.01,Wunderground v.1.15,2013-03-24 07:11:00,
2013-03-24 00:16:00,31.8,28.7,30.38,SSW,196,0.0,0.0,88,0.00,,,0.01,Wunderground v.1.15,2013-03-24 07:16:00,
2013-03-24 00:21:00,31.6,28.7,30.37,SSW,196,0.0,0.0,89,0.00,,,0.01,Wunderground v.1.15,2013-03-24 07:21:00,
2013-03-24 00:31:00,31.3,28.7,30.37,SSW,196,0.0,0.0,90,0.00,,,0.01,Wunderground v.1.15,2013-03-24 07:31:00,
2013-03-24 00:41:00,31.2,28.9,30.37,SSW,196,0.0,0.0,91,0.00,,,0.01,Wunderground v.1.15,2013-03-24 07:41:00,
2013-03-24 00:46:00,31.2,28.9,30.37,SSW,196,0.0,0.0,91,0.00,,,0.01,Wunderground v.1.15,2013-03-24 07:46:00,
2013-03-24 00:51:00,31.0,28.7,30.37,SSW,196,0.0,0.0,91,0.00,,,0.01,Wunderground v.1.15,2013-03-24 07:51:00,
2013-03-24 00:57:00,31.0,28.7,30.37,SSW,196,0.0,0.0,91,0.00,,,0.01,Wunderground v.1.15,2013-03-24 07:57:00,
2013-03-24 01:10:00,30.7,28.4,30.37,SSW,196,0.0,0.0,91,0.00,,,0.00,Wunderground v.1.15,2013-03-24 08:10:00,
2013-03-24 01:20:00,30.6,28.3,30.37,SSW,196,0.0,0.0,91,0.00,,,0.00,Wunderground v.1.15,2013-03-24 08:20:00,
2013-03-24 01:30:00,30.4,28.1,30.37,SSW,196,0.0,0.0,91,0.00,,,0.00,Wunderground v.1.15,2013-03-24 08:30:00,
2013-03-24 01:40:00,30.3,28.0,30.37,SSW,196,0.0,0.0,91,0.00,,,0.00,Wunderground v.1.15,2013-03-24 08:40:00,
2013-03-24 01:50:00,30.1,27.8,30.37,SSW,196,0.0,0.0,91,0.00,,,0.00,Wunderground v.1.15,2013-03-24 08:50:00,
2013-03-24 02:00:00,30.0,28.0,30.37,SSW,196,0.0,0.0,92,0.00,,,0.00,Wunderground v.1.15,2013-03-24 09:00:00,
2013-03-24 02:10:00,30.0,28.0,30.37,SSW,196,0.0,0.0,92,0.00,,,0.00,Wunderground v.1.15,2013-03-24 09:10:00,
2013-03-24 02:20:00,29.8,27.8,30.37,SSW,196,0.0,0.0,92,0.00,,,0.00,Wunderground v.1.15,2013-03-24 09:20:00,
2013-03-24 02:25:00,29.7,27.7,30.37,SSW,196,0.0,0.0,92,0.00,,,0.00,Wunderground v.1.15,2013-03-24 09:25:00,
2013-03-24 02:35:00,29.7,27.9,30.37,SSW,196,0.0,0.0,93,0.00,,,0.00,Wunderground v.1.15,2013-03-24 09:35:00,
2013-03-24 02:45:00,29.5,27.5,30.37,SSW,196,0.0,0.0,92,0.00,,,0.00,Wunderground v.1.15,2013-03-24 09:45:00,
2013-03-24 02:55:00,29.5,27.7,30.37,SSW,196,0.0,0.0,93,0.00,,,0.00,Wunderground v.1.15,2013-03-24 09:55:00,
2013-03-24 03:00:00,29.4,27.4,30.37,SSW,196,0.0,0.0,92,0.00,,,0.00,Wunderground v.1.15,2013-03-24 10:00:00,
2013-03-24 03:10:00,29.4,27.6,30.36,SSW,196,0.0,0.0,93,0.00,,,0.00,Wunderground v.1.15,2013-03-24 10:10:00,
2013-03-24 03:20:00,29.3,27.5,30.37,SSW,196,0.0,0.0,93,0.00,,,0.00,Wunderground v.1.15,2013-03-24 10:20:00,
2013-03-24 03:30:00,29.1,27.3,30.37,SSW,196,0.0,0.0,93,0.00,,,0.00,Wunderground v.1.15,2013-03-24 10:30:00,
2013-03-24 03:40:00,29.1,27.3,30.37,SSW,196,0.0,0.0,93,0.00,,,0.00,Wunderground v.1.15,2013-03-24 10:40:00,
2013-03-24 03:50:00,29.0,27.2,30.36,SSW,196,0.0,0.0,93,0.00,,,0.00,Wunderground v.1.15,2013-03-24 10:50:00,
2013-03-24 04:00:00,29.0,27.2,30.36,SSW,196,0.0,0.0,93,0.00,,,0.00,Wunderground v.1.15,2013-03-24 11:00:00,
2013-03-24 04:06:00,29.0,27.2,30.36,SSW,196,0.0,0.0,93,0.00,,,0.00,Wunderground v.1.15,2013-03-24 11:06:00,
2013-03-24 04:15:00,29.0,27.2,30.36,SSW,196,0.0,0.0,93,0.00,,,0.00,Wunderground v.1.15,2013-03-24 11:15:00,
2013-03-24 04:25:00,29.1,27.6,30.36,SSW,196,0.0,0.0,94,0.00,,,0.00,Wunderground v.1.15,2013-03-24 11:25:00,
2013-03-24 04:30:00,29.1,27.6,30.36,SSW,196,0.0,0.0,94,0.00,,,0.00,Wunderground v.1.15,2013-03-24 11:30:00,
2013-03-24 04:40:00,29.1,27.6,30.35,SSW,198,0.0,0.0,94,0.00,,,0.00,Wunderground v.1.15,2013-03-24 11:40:00,
2013-03-24 04:50:00,29.3,27.8,30.35,SSW,198,0.0,0.0,94,0.00,,,0.00,Wunderground v.1.15,2013-03-24 11:50:00,
2013-03-24 05:00:00,29.1,27.6,30.35,SSW,198,0.0,0.0,94,0.00,,,0.00,Wunderground v.1.15,2013-03-24 12:00:00,
2013-03-24 05:10:00,29.1,27.6,30.35,SSW,198,0.0,0.0,94,0.00,,,0.00,Wunderground v.1.15,2013-03-24 12:10:00,
2013-03-24 05:20:00,29.1,27.6,30.36,SSW,198,0.0,0.0,94,0.00,,,0.00,Wunderground v.1.15,2013-03-24 12:20:00,
2013-03-24 05:25:00,29.1,27.6,30.36,SSW,198,0.0,0.0,94,0.00,,,0.00,Wunderground v.1.15,2013-03-24 12:25:00,
2013-03-24 05:35:00,29.3,27.8,30.35,SSW,198,0.0,0.0,94,0.00,,,0.00,Wunderground v.1.15,2013-03-24 12:35:00,
2013-03-24 05:45:00,29.3,27.8,30.35,SSW,198,0.0,0.0,94,0.00,,,0.00,Wunderground v.1.15,2013-03-24 12:45:00,
2013-03-24 05:55:00,29.4,27.9,30.35,SSW,198,0.0,0.0,94,0.00,,,0.00,Wunderground v.1.15,2013-03-24 12:55:00,
2013-03-24 06:00:00,29.4,27.9,30.35,SSW,198,0.0,0.0,94,0.00,,,0.00,Wunderground v.1.15,2013-03-24 13:00:00,
2013-03-24 06:10:00,29.4,27.9,30.35,SSW,196,0.0,0.0,94,0.00,,,0.00,Wunderground v.1.15,2013-03-24 13:10:00,
2013-03-24 06:20:00,29.4,27.9,30.35,SSW,198,0.0,0.0,94,0.00,,,0.00,Wunderground v.1.15,2013-03-24 13:20:00,
2013-03-24 06:25:00,29.4,27.9,30.35,SSW,198,0.0,0.0,94,0.00,,,0.00,Wunderground v.1.15,2013-03-24 13:25:00,
2013-03-24 06:35:00,29.3,27.8,30.35,SSW,198,0.0,0.0,94,0.00,,,0.00,Wunderground v.1.15,2013-03-24 13:35:00,
2013-03-24 06:45:00,29.1,27.6,30.35,SSW,198,0.0,0.0,94,0.00,,,0.00,Wunderground v.1.15,2013-03-24 13:45:00,
2013-03-24 06:50:00,29.0,27.5,30.35,SSW,198,0.0,0.0,94,0.00,,,0.00,Wunderground v.1.15,2013-03-24 13:50:00,
2013-03-24 07:00:00,29.0,27.2,30.35,SSW,198,0.0,0.0,93,0.00,,,0.00,Wunderground v.1.15,2013-03-24 14:00:00,
2013-03-24 07:10:00,28.8,27.0,30.36,SSW,198,0.0,0.0,93,0.00,,,0.00,Wunderground v.1.15,2013-03-24 14:10:00,
2013-03-24 07:15:00,28.7,26.9,30.36,SSW,198,0.0,0.0,93,0.00,,,0.00,Wunderground v.1.15,2013-03-24 14:15:00,
2013-03-24 07:25:00,28.7,27.2,30.36,SSW,198,0.0,0.0,94,0.00,,,0.00,Wunderground v.1.15,2013-03-24 14:25:00,
2013-03-24 07:35:00,28.7,27.2,30.35,SSW,198,0.0,0.0,94,0.00,,,0.00,Wunderground v.1.15,2013-03-24 14:35:00,
2013-03-24 07:40:00,28.7,27.2,30.35,SSW,198,0.0,0.0,94,0.00,,,0.00,Wunderground v.1.15,2013-03-24 14:40:00,
2013-03-24 07:50:00,29.0,27.5,30.35,SSW,198,0.0,0.0,94,0.00,,,0.00,Wunderground v.1.15,2013-03-24 14:50:00,
2013-03-24 07:55:00,29.1,27.8,30.35,SSW,198,0.0,0.0,95,0.00,,,0.00,Wunderground v.1.15,2013-03-24 14:55:00,
2013-03-24 08:10:00,30.0,28.7,30.34,SSW,196,0.0,0.0,95,0.00,,,0.00,Wunderground v.1.15,2013-03-24 15:10:00,
2013-03-24 08:20:00,30.6,29.6,30.34,SSW,196,0.0,0.0,96,0.00,,,0.00,Wunderground v.1.15,2013-03-24 15:20:00,
2013-03-24 08:30:00,31.2,30.2,30.34,SSW,196,0.0,0.0,96,0.00,,,0.00,Wunderground v.1.15,2013-03-24 15:30:00,
2013-03-24 08:40:00,31.8,30.8,30.34,SSW,196,0.0,0.0,96,0.00,,,0.00,Wunderground v.1.15,2013-03-24 15:40:00,
2013-03-24 08:45:00,32.1,30.8,30.34,SSW,196,0.0,0.0,95,0.00,,,0.00,Wunderground v.1.15,2013-03-24 15:45:00,
2013-03-24 08:55:00,32.5,31.2,30.34,SSW,196,0.0,0.0,95,0.00,,,0.00,Wunderground v.1.15,2013-03-24 15:55:00,
2013-03-24 09:10:00,33.2,31.4,30.33,ESE,109,0.0,0.0,93,0.00,,,0.00,Wunderground v.1.15,2013-03-24 16:10:00,
2013-03-24 09:15:00,33.5,31.4,30.33,ESE,109,0.0,0.0,92,0.00,,,0.00,Wunderground v.1.15,2013-03-24 16:15:00,
2013-03-24 09:20:00,33.8,31.5,30.33,ESE,109,0.0,1.0,91,0.00,,,0.00,Wunderground v.1.15,2013-03-24 16:20:00,
2013-03-24 09:25:00,34.1,31.5,30.33,ESE,109,0.0,1.0,90,0.00,,,0.00,Wunderground v.1.15,2013-03-24 16:25:00,
2013-03-24 09:35:00,34.3,31.1,30.33,SSE,160,0.0,1.0,88,0.00,,,0.00,Wunderground v.1.15,2013-03-24 16:35:00,
2013-03-24 09:45:00,34.6,31.4,30.33,SW,219,0.0,2.0,88,0.00,,,0.00,Wunderground v.1.15,2013-03-24 16:45:00,
2013-03-24 09:55:00,35.2,30.9,30.33,SW,219,0.0,1.0,84,0.00,,,0.00,Wunderground v.1.15,2013-03-24 16:55:00,
2013-03-24 10:00:00,35.6,31.8,30.33,SW,219,0.0,1.0,86,0.00,,,0.00,Wunderground v.1.15,2013-03-24 17:00:00,
2013-03-24 10:10:00,36.6,31.9,30.34,SW,219,0.0,0.0,83,0.00,,,0.00,Wunderground v.1.15,2013-03-24 17:10:00,
2013-03-24 10:15:00,37.2,32.5,30.34,SW,219,0.0,0.0,83,0.00,,,0.00,Wunderground v.1.15,2013-03-24 17:15:00,
2013-03-24 10:25:00,38.5,33.8,30.33,SW,219,0.0,0.0,83,0.00,,,0.00,Wunderground v.1.15,2013-03-24 17:25:00,
2013-03-24 10:30:00,39.3,34.0,30.33,SW,220,0.0,1.0,81,0.00,,,0.00,Wunderground v.1.15,2013-03-24 17:30:00,
2013-03-24 10:40:00,40.6,34.3,30.33,SW,220,0.0,0.0,78,0.00,,,0.00,Wunderground v.1.15,2013-03-24 17:40:00,
2013-03-24 10:45:00,41.3,34.6,30.33,SSE,168,0.0,0.0,77,0.00,,,0.00,Wunderground v.1.15,2013-03-24 17:45:00,
2013-03-24 10:55:00,42.1,35.1,30.32,South,185,0.0,1.0,76,0.00,,,0.00,Wunderground v.1.15,2013-03-24 17:55:00,
2013-03-24 11:10:00,42.9,35.2,30.32,SSE,160,0.0,2.0,74,0.00,,,0.00,Wunderground v.1.15,2013-03-24 18:10:00,
2013-03-24 11:20:00,43.3,34.2,30.32,South,191,0.0,2.0,70,0.00,,,0.00,Wunderground v.1.15,2013-03-24 18:20:00,
2013-03-24 11:30:00,44.2,34.3,30.32,SSW,192,0.0,0.0,68,0.00,,,0.00,Wunderground v.1.15,2013-03-24 18:30:00,
2013-03-24 11:40:00,44.9,35.0,30.32,SSW,202,0.0,0.0,68,0.00,,,0.00,Wunderground v.1.15,2013-03-24 18:40:00,
2013-03-24 11:45:00,45.2,33.7,30.32,SW,232,0.0,0.0,64,0.00,,,0.00,Wunderground v.1.15,2013-03-24 18:45:00,
2013-03-24 11:55:00,46.2,34.3,30.31,SW,234,0.0,0.0,63,0.00,,,0.00,Wunderground v.1.15,2013-03-24 18:55:00,
2013-03-24 12:10:00,48.0,35.2,30.31,SSW,200,0.0,0.0,61,0.00,,,0.00,Wunderground v.1.15,2013-03-24 19:10:00,
2013-03-24 12:20:00,49.5,34.0,30.30,WSW,243,0.0,0.0,55,0.00,,,0.00,Wunderground v.1.15,2013-03-24 19:20:00,
2013-03-24 12:25:00,49.6,37.1,30.30,NE,40,0.0,0.0,62,0.00,,,0.00,Wunderground v.1.15,2013-03-24 19:25:00,
2013-03-24 12:30:00,49.9,35.7,30.30,South,186,0.0,0.0,58,0.00,,,0.00,Wunderground v.1.15,2013-03-24 19:30:00,
2013-03-24 12:35:00,50.2,35.1,30.30,NE,49,0.0,0.0,56,0.00,,,0.00,Wunderground v.1.15,2013-03-24 19:35:00,
2013-03-24 12:45:00,51.4,32.9,30.30,SE,134,0.0,0.0,49,0.00,,,0.00,Wunderground v.1.15,2013-03-24 19:45:00,
2013-03-24 12:55:00,52.8,35.2,30.29,South,189,0.0,0.0,51,0.00,,,0.00,Wunderground v.1.15,2013-03-24 19:55:00,
2013-03-24 13:00:00,52.9,31.6,30.29,SW,230,0.0,0.0,44,0.00,,,0.00,Wunderground v.1.15,2013-03-24 20:00:00,
2013-03-24 13:10:00,53.2,32.9,30.29,South,171,0.0,0.0,46,0.00,,,0.00,Wunderground v.1.15,2013-03-24 20:10:00,
2013-03-24 13:20:00,53.1,31.7,30.29,NW,313,0.0,0.0,44,0.00,,,0.00,Wunderground v.1.15,2013-03-24 20:20:00,
2013-03-24 13:30:00,53.1,30.0,30.29,SSE,155,0.0,0.0,41,0.00,,,0.00,Wunderground v.1.15,2013-03-24 20:30:00,
2013-03-24 13:35:00,53.2,31.8,30.28,East,100,0.0,0.0,44,0.00,,,0.00,Wunderground v.1.15,2013-03-24 20:35:00,
2013-03-24 13:45:00,53.6,30.4,30.28,West,281,0.0,0.0,41,0.00,,,0.00,Wunderground v.1.15,2013-03-24 20:45:00,
2013-03-24 13:55:00,53.3,31.4,30.28,SE,137,0.0,0.0,43,0.00,,,0.00,Wunderground v.1.15,2013-03-24 20:55:00,
2013-03-24 14:10:00,53.2,29.5,30.28,SE,134,0.0,0.0,40,0.00,,,0.00,Wunderground v.1.15,2013-03-24 21:10:00,
2013-03-24 14:20:00,53.2,30.1,30.28,NE,34,0.0,0.0,41,0.00,,,0.00,Wunderground v.1.15,2013-03-24 21:20:00,
2013-03-24 14:25:00,53.2,28.2,30.28,NNW,333,0.0,0.0,38,0.00,,,0.00,Wunderground v.1.15,2013-03-24 21:25:00,
2013-03-24 14:35:00,53.1,29.4,30.27,NNW,329,0.0,0.0,40,0.00,,,0.00,Wunderground v.1.15,2013-03-24 21:35:00,
2013-03-24 14:45:00,52.9,28.6,30.27,East,95,0.0,0.0,39,0.00,,,0.00,Wunderground v.1.15,2013-03-24 21:45:00,
2013-03-24 14:50:00,52.9,30.4,30.26,SE,127,0.0,0.0,42,0.00,,,0.00,Wunderground v.1.15,2013-03-24 21:50:00,
2013-03-24 15:00:00,53.3,29.6,30.26,NW,319,0.0,0.0,40,0.00,,,0.00,Wunderground v.1.15,2013-03-24 22:00:00,
2013-03-24 15:06:00,53.5,30.4,30.26,NNE,20,0.0,0.0,41,0.00,,,0.00,Wunderground v.1.15,2013-03-24 22:06:00,
2013-03-24 15:15:00,53.6,28.6,30.26,East,95,0.0,0.0,38,0.00,,,0.00,Wunderground v.1.15,2013-03-24 22:15:00,
2013-03-24 15:20:00,53.8,30.6,30.25,ESE,106,0.0,0.0,41,0.00,,,0.00,Wunderground v.1.15,2013-03-24 22:20:00,
2013-03-24 15:30:00,54.2,29.1,30.25,WNW,291,0.0,0.0,38,0.00,,,0.00,Wunderground v.1.15,2013-03-24 22:30:00,
2013-03-24 15:36:00,54.5,29.4,30.25,South,185,0.0,0.0,38,0.00,,,0.00,Wunderground v.1.15,2013-03-24 22:36:00,
2013-03-24 15:45:00,55.1,31.2,30.25,SSE,167,0.0,0.0,40,0.00,,,0.00,Wunderground v.1.15,2013-03-24 22:45:00,
2013-03-24 15:55:00,55.4,30.2,30.24,SSW,198,0.0,0.0,38,0.00,,,0.00,Wunderground v.1.15,2013-03-24 22:55:00,
2013-03-24 16:10:00,55.7,29.1,30.23,SE,127,0.0,0.0,36,0.00,,,0.00,Wunderground v.1.15,2013-03-24 23:10:00,
2013-03-24 16:15:00,55.7,29.1,30.23,NW,316,0.0,0.0,36,0.00,,,0.00,Wunderground v.1.15,2013-03-24 23:15:00,
2013-03-24 16:25:00,55.7,28.4,30.23,West,263,0.0,0.0,35,0.00,,,0.00,Wunderground v.1.15,2013-03-24 23:25:00,
2013-03-24 16:30:00,55.6,30.4,30.23,North,0,0.0,0.0,38,0.00,,,0.00,Wunderground v.1.15,2013-03-24 23:30:00,
2013-03-24 16:35:00,55.4,28.2,30.22,ESE,123,0.0,0.0,35,0.00,,,0.00,Wunderground v.1.15,2013-03-24 23:35:00,
2013-03-24 16:45:00,55.3,28.8,30.22,SE,138,0.0,0.0,36,0.00,,,0.00,Wunderground v.1.15,2013-03-24 23:45:00,
2013-03-24 16:50:00,55.3,28.1,30.22,SSE,158,0.0,0.0,35,0.00,,,0.00,Wunderground v.1.15,2013-03-24 23:50:00,
2013-03-24 17:00:00,55.0,29.2,30.22,SE,130,0.0,0.0,37,0.00,,,0.00,Wunderground v.1.15,2013-03-25 00:00:00,
2013-03-24 17:10:00,55.0,30.5,30.22,North,0,0.0,0.0,39,0.00,,,0.00,Wunderground v.1.15,2013-03-25 00:10:00,
2013-03-24 17:20:00,54.7,29.6,30.21,SW,223,0.0,0.0,38,0.00,,,0.00,Wunderground v.1.15,2013-03-25 00:20:00,
2013-03-24 17:30:00,54.4,26.6,30.21,SE,131,0.0,0.0,34,0.00,,,0.00,Wunderground v.1.15,2013-03-25 00:30:00,
2013-03-24 17:40:00,54.1,26.3,30.21,SE,134,1.0,1.0,34,0.00,,,0.00,Wunderground v.1.15,2013-03-25 00:40:00,
2013-03-24 17:45:00,54.1,28.4,30.21,ESE,107,1.0,4.0,37,0.00,,,0.00,Wunderground v.1.15,2013-03-25 00:45:00,
2013-03-24 17:55:00,53.6,28.6,30.20,East,89,0.0,4.0,38,0.00,,,0.00,Wunderground v.1.15,2013-03-25 00:55:00,
2013-03-24 18:10:00,53.5,27.2,30.20,SSE,160,0.0,1.0,36,0.00,,,0.00,Wunderground v.1.15,2013-03-25 01:10:00,
2013-03-24 18:15:00,53.3,27.7,30.20,SSE,160,0.0,2.0,37,0.00,,,0.00,Wunderground v.1.15,2013-03-25 01:15:00,
2013-03-24 18:20:00,53.2,27.6,30.20,North,354,0.0,1.0,37,0.00,,,0.00,Wunderground v.1.15,2013-03-25 01:20:00,
2013-03-24 18:30:00,52.8,28.5,30.20,ESE,110,0.0,0.0,39,0.00,,,0.00,Wunderground v.1.15,2013-03-25 01:30:00,
2013-03-24 18:35:00,52.6,30.1,30.19,ESE,110,0.0,0.0,42,0.00,,,0.00,Wunderground v.1.15,2013-03-25 01:35:00,
2013-03-24 18:45:00,51.9,30.6,30.19,ESE,110,0.0,0.0,44,0.00,,,0.00,Wunderground v.1.15,2013-03-25 01:45:00,
2013-03-24 18:55:00,51.1,29.9,30.19,ESE,110,0.0,0.0,44,0.00,,,0.00,Wunderground v.1.15,2013-03-25 01:55:00,
2013-03-24 19:00:00,50.8,31.3,30.19,ESE,110,0.0,0.0,47,0.00,,,0.00,Wunderground v.1.15,2013-03-25 02:00:00,
2013-03-24 19:10:00,49.9,28.3,30.19,ESE,110,0.0,0.0,43,0.00,,,0.00,Wunderground v.1.15,2013-03-25 02:10:00,
2013-03-24 19:20:00,49.2,28.7,30.19,ESE,110,0.0,0.0,45,0.00,,,0.00,Wunderground v.1.15,2013-03-25 02:20:00,
2013-03-24 19:30:00,48.5,29.7,30.19,ESE,110,0.0,0.0,48,0.00,,,0.00,Wunderground v.1.15,2013-03-25 02:30:00,
2013-03-24 19:40:00,47.7,28.4,30.19,ESE,110,0.0,0.0,47,0.00,,,0.00,Wunderground v.1.15,2013-03-25 02:40:00,
2013-03-24 19:46:00,47.4,29.7,30.19,ESE,110,0.0,0.0,50,0.00,,,0.00,Wunderground v.1.15,2013-03-25 02:46:00,
2013-03-24 19:55:00,46.7,30.5,30.19,ESE,110,0.0,0.0,53,0.00,,,0.00,Wunderground v.1.15,2013-03-25 02:55:00,
2013-03-24 20:10:00,45.7,31.3,30.19,WSW,240,0.0,0.0,57,0.00,,,0.00,Wunderground v.1.15,2013-03-25 03:10:00,
2013-03-24 20:15:00,45.4,32.3,30.19,SW,224,0.0,0.0,60,0.00,,,0.00,Wunderground v.1.15,2013-03-25 03:15:00,
2013-03-24 20:25:00,44.8,31.8,30.19,SW,224,0.0,0.0,60,0.00,,,0.00,Wunderground v.1.15,2013-03-25 03:25:00,
2013-03-24 20:35:00,44.2,31.6,30.19,WSW,246,0.0,0.0,61,0.00,,,0.00,Wunderground v.1.15,2013-03-25 03:35:00,
2013-03-24 20:40:00,43.9,31.7,30.19,NNE,32,0.0,0.0,62,0.00,,,0.00,Wunderground v.1.15,2013-03-25 03:40:00,
2013-03-24 20:50:00,43.3,32.3,30.20,NNE,32,0.0,0.0,65,0.00,,,0.00,Wunderground v.1.15,2013-03-25 03:50:00,
2013-03-24 21:00:00,42.8,31.8,30.20,NNE,32,0.0,0.0,65,0.00,,,0.00,Wunderground v.1.15,2013-03-25 04:00:00,
2013-03-24 21:10:00,42.2,31.3,30.20,NNE,27,0.0,0.0,65,0.00,,,0.00,Wunderground v.1.15,2013-03-25 04:10:00,
2013-03-24 21:15:00,42.1,31.6,30.20,NNE,27,0.0,0.0,66,0.00,,,0.00,Wunderground v.1.15,2013-03-25 04:15:00,
2013-03-24 21:20:00,41.8,31.6,30.20,NNE,27,0.0,0.0,67,0.00,,,0.00,Wunderground v.1.15,2013-03-25 04:20:00,
2013-03-24 21:26:00,41.5,31.7,30.20,NNE,27,0.0,0.0,68,0.00,,,0.00,Wunderground v.1.15,2013-03-25 04:26:00,
2013-03-24 21:30:00,41.2,31.8,30.20,NNE,27,0.0,0.0,69,0.00,,,0.00,Wunderground v.1.15,2013-03-25 04:30:00,
2013-03-24 21:35:00,40.9,31.9,30.20,NNE,27,0.0,0.0,70,0.00,,,0.00,Wunderground v.1.15,2013-03-25 04:35:00,
2013-03-24 21:45:00,40.5,31.5,30.20,NNE,27,0.0,0.0,70,0.00,,,0.00,Wunderground v.1.15,2013-03-25 04:45:00,
2013-03-24 21:56:00,40.1,31.4,30.20,NNE,27,0.0,0.0,71,0.00,,,0.00,Wunderground v.1.15,2013-03-25 04:56:00,
2013-03-24 22:10:00,39.5,31.2,30.20,NNE,27,0.0,0.0,72,0.00,,,0.00,Wunderground v.1.15,2013-03-25 05:10:00,
2013-03-24 22:20:00,39.2,30.2,30.20,North,0,0.0,0.0,70,0.00,,,0.00,Wunderground v.1.15,2013-03-25 05:20:00,
2013-03-24 22:30:00,39.1,30.8,30.20,North,0,0.0,0.0,72,0.00,,,0.00,Wunderground v.1.15,2013-03-25 05:30:00,
2013-03-24 22:35:00,38.9,30.6,30.20,North,0,0.0,0.0,72,0.00,,,0.00,Wunderground v.1.15,2013-03-25 05:35:00,
2013-03-24 22:40:00,38.8,30.9,30.20,North,0,0.0,0.0,73,0.00,,,0.00,Wunderground v.1.15,2013-03-25 05:40:00,
2013-03-24 22:45:00,38.6,31.0,30.20,North,0,0.0,0.0,74,0.00,,,0.00,Wunderground v.1.15,2013-03-25 05:45:00,
2013-03-24 22:55:00,38.2,30.3,30.20,North,0,0.0,0.0,73,0.00,,,0.00,Wunderground v.1.15,2013-03-25 05:55:00,
2013-03-24 23:00:00,38.2,30.0,30.20,North,0,0.0,0.0,72,0.00,,,0.00,Wunderground v.1.15,2013-03-25 06:00:00,
2013-03-24 23:10:00,38.0,30.1,30.20,North,0,0.0,0.0,73,0.00,,,0.00,Wunderground v.1.15,2013-03-25 06:10:00,
2013-03-24 23:20:00,37.9,30.4,30.20,North,0,0.0,0.0,74,0.00,,,0.00,Wunderground v.1.15,2013-03-25 06:20:00,
2013-03-24 23:26:00,37.9,30.0,30.20,North,0,0.0,0.0,73,0.00,,,0.00,Wunderground v.1.15,2013-03-25 06:26:00,
2013-03-24 23:35:00,37.9,30.4,30.20,North,0,0.0,0.0,74,0.00,,,0.00,Wunderground v.1.15,2013-03-25 06:35:00,
2013-03-24 23:45:00,37.9,29.7,30.20,North,0,0.0,0.0,72,0.00,,,0.00,Wunderground v.1.15,2013-03-25 06:45:00,
2013-03-24 23:55:00,37.9,29.3,30.20,North,0,0.0,0.0,71,0.00,,,0.00,Wunderground v.1.15,2013-03-25 06:55:00,